Weather Roundup
Issued by NWS Corpus Christi, TX

Home | Current Version | Previous Version | Text Only | Print | Product List | Glossary On
Versions: 1 2 3 4 5 6 7 8 9 10 11 12 13 14 15 16 17 18 19 20 21 22 23 24 25 26 27 28 29 30 31 32 33 34 35 36 37 38 39 40 41 42 43 44 45 46 47 48 49 50
000
ASUS44 KCRP 240410
HRRCRP

SOUTH TEXAS REGIONAL WEATHER ROUNDUP
NATIONAL WEATHER SERVICE CORPUS CHRISTI TX
1100 PM CDT SUN APR 23 2017


TXZ229>244-240500-
...CORPUS CHRISTI AREA OBSERVATIONS...

CITY           SKY/WX    TMP DP  RH WIND       PRES   REMARKS
CORPUS CHRISTI PTCLDY    67  47  48 NE7       30.02R
NAS CORPUS CHR PTCLDY    72  46  39 NE12      30.02R
ROCKPORT       PTCLDY    64  47  53 NE7       30.02R
KINGSVILLE NAS PTCLDY    61  49  64 NE3       30.03R
ALICE          CLEAR     60  46  59 E5        30.03R
ORANGE GROVE     N/A    N/A N/A N/A MISG      30.04R
FALFURRIAS     CLEAR     62  46  57 CALM      30.03R
$$

...VICTORIA AREA OBSERVATIONS...

CITY           SKY/WX    TMP DP  RH WIND       PRES   REMARKS
VICTORIA       CLEAR     60  48  64 NE8       30.02R
BEEVILLE       FAIR      61  47  59 E3        30.03R
PLEASANTON     CLEAR     56  44  64 CALM      30.03R HAZE
SAN ANTONIO    PTCLDY    60  44  55 CALM      30.03R
$$

...LAREDO AREA OBSERVATIONS...

CITY           SKY/WX    TMP DP  RH WIND       PRES   REMARKS
LAREDO         CLEAR     67  48  50 E5        30.03R
COTULLA        CLEAR     61  45  55 S3        30.03R
DEL RIO        NOT AVBL
MCALLEN        CLOUDY    70  47  43 SE9       30.04R
HEBBRONVILLE   PTCLDY    62  48  59 CALM      30.05R
$$

...OTHER TEXAS OBSERVATIONS...

CITY           SKY/WX    TMP DP  RH WIND       PRES   REMARKS
BROWNSVILLE    PTCLDY    64  53  67 CALM      30.04R
HOUSTON        CLEAR     62  47  57 CALM      30.01S
COL. STATION   CLEAR     57  48  72 CALM      30.02S
AUSTIN         CLEAR     52  46  80 CALM      30.02S
WACO           CLEAR     51  48  89 CALM      30.02S
FORT WORTH     CLEAR     63  40  42 CALM      30.00S
WICHITA FALLS  CLEAR     53  39  59 SE9       29.99F
LUBBOCK        PTCLDY    58  33  39 S12       29.98S
EL PASO        CLEAR     76  29  17 SE10      29.91R
$$

...MARINE OBSERVATIONS...

STATION/POSITION TIME  SKY/WX   TEMP    WIND        PRES    VSBY  WAVE   SWELL
                                AIR SEA DIR/SP/G                  HT/PER HT/PER
                 (UTC)          (F)     (DEG/KT/KT) (MB)    (MI)  (FT/S) (FT/S)
PORT ARANSAS     0400            72 76   20/ 12/ 14 1016.7R
BUOY 90 E PORT A 0350            71 76  360/ 14/ 16 1015.9R         3/ 4   2/ 7
BUOY 45 SE BAFFI 0350            72      40/ 10/ 12 1015.7R         4/ 7   3/ 7
BUOY 200 E PT IS 0350            70 79  360/ 14/ 21 1015.7R         6/ 7   3/ 7
BUOY 15 E GALVES 0350            69 75  360/ 12/ 14 1016.1R         2/ 3
$$




USA.gov is the U.S. government's official web portal to all federal, state and local government web resources and services.